Wetterdaten: aktuell Mittwoch, 07.12.2022 08:15
Datum Zeit Temperatur Temp. 5 cm Luftfeuchte Luftdruck Regen Wind Richtung Richtung Sonnenschein ET UV Solar Taupunkt Windchill Windben
07.12.2022 08:15 0,0 C -0,6 C 88 % 1016,9 hPa 0,0 l/m 8,8 km/h (2 Bft) W-NW 287 0 min 0,000 mm 0,0 UV-I 18 W/m -1,7 C -3,0 C 11,3 km/h (2 Bft)
07.12.2022 08:14 0,0 C -0,6 C 89 % 1016,9 hPa 0,0 l/m 9,3 km/h (2 Bft) W-SW 249 0 min 0,000 mm 0,0 UV-I 18 W/m -1,6 C -3,1 C 12,9 km/h (3 Bft)
07.12.2022 08:13 -0,1 C -0,6 C 89 % 1016,9 hPa 0,0 l/m 6,2 km/h (2 Bft) W-SW 251 0 min 0,000 mm 0,0 UV-I 18 W/m -1,7 C -2,2 C 9,7 km/h (2 Bft)
07.12.2022 08:12 -0,1 C -0,6 C 89 % 1016,9 hPa 0,0 l/m 6,8 km/h (2 Bft) W-NW 294 0 min 0,000 mm 0,0 UV-I 18 W/m -1,7 C -2,4 C 9,7 km/h (2 Bft)
07.12.2022 08:11 -0,1 C -0,6 C 89 % 1016,9 hPa 0,0 l/m 11,2 km/h (2 Bft) W-SW 239 0 min 0,000 mm 0,0 UV-I 16 W/m -1,7 C -3,7 C 16,1 km/h (3 Bft)
07.12.2022 08:10 -0,1 C -0,6 C 89 % 1016,9 hPa 0,0 l/m 10,5 km/h (2 Bft) W-SW 240 0 min 0,000 mm 0,0 UV-I 16 W/m -1,7 C -3,6 C 14,5 km/h (3 Bft)
07.12.2022 08:09 -0,1 C -0,6 C 89 % 1016,9 hPa 0,0 l/m 8,4 km/h (2 Bft) SW 225 0 min 0,000 mm 0,0 UV-I 16 W/m -1,7 C -3,0 C 9,7 km/h (2 Bft)
07.12.2022 08:08 -0,2 C -0,6 C 89 % 1016,9 hPa 0,0 l/m 7,7 km/h (2 Bft) W-SW 247 0 min 0,000 mm 0,0 UV-I 14 W/m -1,8 C -2,9 C 8,0 km/h (2 Bft)
07.12.2022 08:07 -0,2 C -0,6 C 88 % 1016,9 hPa 0,0 l/m 9,6 km/h (2 Bft) W 266 0 min 0,000 mm 0,0 UV-I 14 W/m -1,9 C -3,4 C 14,5 km/h (3 Bft)
07.12.2022 08:05 -0,2 C -0,6 C 88 % 1016,9 hPa 0,0 l/m 5,4 km/h (2 Bft) W 271 0 min 0,000 mm 0,0 UV-I 12 W/m -1,9 C -2,0 C 8,0 km/h (2 Bft)
07.12.2022 08:04 -0,2 C -0,6 C 88 % 1017,0 hPa 0,0 l/m 5,0 km/h (1 Bft) W 270 1 min 0,000 mm 0,0 UV-I 12 W/m -1,9 C -1,8 C 8,0 km/h (2 Bft)
07.12.2022 08:03 -0,2 C -0,6 C 88 % 1016,9 hPa 0,0 l/m 7,6 km/h (2 Bft) W 265 2 min 0,000 mm 0,0 UV-I 12 W/m -1,9 C -2,8 C 9,7 km/h (2 Bft)
07.12.2022 08:01 -0,2 C -0,6 C 88 % 1016,9 hPa 0,0 l/m 7,8 km/h (2 Bft) W 259 0 min 0,000 mm 0,0 UV-I 12 W/m -1,9 C -2,9 C 9,7 km/h (2 Bft)
07.12.2022 08:00 -0,2 C -0,6 C 88 % 1016,9 hPa 0,0 l/m 7,9 km/h (2 Bft) W 267 0 min 0,000 mm 0,0 UV-I 11 W/m -1,9 C -2,9 C 9,7 km/h (2 Bft)
07.12.2022 07:59 -0,2 C -1,1 C 88 % 1016,9 hPa 0,0 l/m 6,9 km/h (2 Bft) W 260 0 min 0,000 mm 0,0 UV-I 11 W/m -1,9 C -2,6 C 9,7 km/h (2 Bft)
07.12.2022 07:58 -0,2 C -1,1 C 88 % 1016,9 hPa 0,0 l/m 8,8 km/h (2 Bft) W 270 0 min 0,000 mm 0,0 UV-I 11 W/m -1,9 C -3,2 C 11,3 km/h (2 Bft)
07.12.2022 07:57 -0,2 C -1,1 C 88 % 1016,8 hPa 0,0 l/m 7,6 km/h (2 Bft) W 273 0 min 0,000 mm 0,0 UV-I 11 W/m -1,9 C -2,8 C 11,3 km/h (2 Bft)
07.12.2022 07:56 -0,2 C -1,1 C 88 % 1016,8 hPa 0,0 l/m 7,6 km/h (2 Bft) W 272 0 min 0,000 mm 0,0 UV-I 9 W/m -1,9 C -2,8 C 11,3 km/h (2 Bft)
07.12.2022 07:55 -0,3 C -1,1 C 88 % 1016,8 hPa 0,0 l/m 8,0 km/h (2 Bft) W 280 0 min 0,000 mm 0,0 UV-I 9 W/m -2,0 C -3,1 C 11,3 km/h (2 Bft)
07.12.2022 07:54 -0,3 C -1,1 C 88 % 1016,8 hPa 0,0 l/m 10,4 km/h (2 Bft) W 264 0 min 0,000 mm 0,0 UV-I 7 W/m -2,0 C -3,8 C 14,5 km/h (3 Bft)
07.12.2022 07:53 -0,3 C -1,1 C 88 % 1016,7 hPa 0,0 l/m 9,3 km/h (2 Bft) W-NW 282 0 min 0,000 mm 0,0 UV-I 7 W/m -2,0 C -3,5 C 11,3 km/h (2 Bft)
07.12.2022 07:52 -0,3 C -1,1 C 88 % 1016,7 hPa 0,0 l/m 8,3 km/h (2 Bft) W 277 0 min 0,000 mm 0,0 UV-I 7 W/m -2,0 C -3,2 C 11,3 km/h (2 Bft)
07.12.2022 07:51 -0,3 C -1,1 C 88 % 1016,7 hPa 0,0 l/m 7,5 km/h (2 Bft) W-NW 291 0 min 0,000 mm 0,0 UV-I 5 W/m -2,0 C -2,9 C 9,7 km/h (2 Bft)
07.12.2022 07:50 -0,3 C -1,1 C 88 % 1016,7 hPa 0,0 l/m 8,9 km/h (2 Bft) W 263 0 min 0,000 mm 0,0 UV-I 5 W/m -2,0 C -3,4 C 11,3 km/h (2 Bft)
07.12.2022 07:49 -0,2 C -1,1 C 88 % 1016,7 hPa 0,0 l/m 11,6 km/h (2 Bft) W 269 0 min 0,000 mm 0,0 UV-I 5 W/m -1,9 C -4,0 C 14,5 km/h (3 Bft)
07.12.2022 07:48 -0,2 C -1,1 C 87 % 1016,7 hPa 0,0 l/m 7,7 km/h (2 Bft) W-NW 288 0 min 0,000 mm 0,0 UV-I 5 W/m -2,1 C -2,9 C 11,3 km/h (2 Bft)
07.12.2022 07:47 -0,2 C -1,1 C 87 % 1016,7 hPa 0,0 l/m 6,9 km/h (2 Bft) W 275 0 min 0,000 mm 0,0 UV-I 0 W/m -2,1 C -2,6 C 11,3 km/h (2 Bft)
07.12.2022 07:45 -0,2 C -1,1 C 87 % 1016,6 hPa 0,0 l/m 6,1 km/h (2 Bft) W-SW 252 0 min 0,000 mm 0,0 UV-I 0 W/m -2,1 C -2,3 C 8,0 km/h (2 Bft)
07.12.2022 07:44 -0,2 C -1,1 C 87 % 1016,6 hPa 0,0 l/m 6,6 km/h (2 Bft) W 263 0 min 0,000 mm 0,0 UV-I 0 W/m -2,1 C -2,5 C 9,7 km/h (2 Bft)
07.12.2022 07:43 -0,2 C -1,1 C 87 % 1016,6 hPa 0,0 l/m 6,0 km/h (2 Bft) W-SW 248 0 min 0,000 mm 0,0 UV-I 0 W/m -2,1 C -2,3 C 8,0 km/h (2 Bft)
07.12.2022 07:42 -0,2 C -1,1 C 87 % 1016,7 hPa 0,0 l/m 6,5 km/h (2 Bft) SW 236 0 min 0,000 mm 0,0 UV-I 0 W/m -2,1 C -2,5 C 8,0 km/h (2 Bft)
07.12.2022 07:41 -0,2 C -1,1 C 87 % 1016,7 hPa 0,0 l/m 6,2 km/h (2 Bft) W-SW 252 0 min 0,000 mm 0,0 UV-I 0 W/m -2,1 C -2,3 C 8,0 km/h (2 Bft)
07.12.2022 07:40 -0,2 C -1,1 C 86 % 1016,7 hPa 0,0 l/m 8,6 km/h (2 Bft) W-SW 242 0 min 0,000 mm 0,0 UV-I 0 W/m -2,3 C -3,2 C 11,3 km/h (2 Bft)
07.12.2022 07:39 -0,1 C -1,1 C 86 % 1016,7 hPa 0,0 l/m 7,0 km/h (2 Bft) SW 227 0 min 0,000 mm 0,0 UV-I 0 W/m -2,2 C -2,5 C 9,7 km/h (2 Bft)
07.12.2022 07:38 -0,1 C -1,1 C 86 % 1016,7 hPa 0,0 l/m 6,4 km/h (2 Bft) W-SW 239 0 min 0,000 mm 0,0 UV-I 0 W/m -2,2 C -2,3 C 8,0 km/h (2 Bft)
07.12.2022 07:37 -0,1 C -1,1 C 86 % 1016,6 hPa 0,0 l/m 5,6 km/h (2 Bft) W-SW 240 0 min 0,000 mm 0,0 UV-I 0 W/m -2,2 C -2,0 C 6,4 km/h (2 Bft)
07.12.2022 07:36 -0,1 C -1,1 C 86 % 1016,6 hPa 0,0 l/m 6,2 km/h (2 Bft) W-SW 254 0 min 0,000 mm 0,0 UV-I 0 W/m -2,2 C -2,2 C 8,0 km/h (2 Bft)
07.12.2022 07:35 -0,1 C -1,1 C 86 % 1016,6 hPa 0,0 l/m 6,8 km/h (2 Bft) W-SW 244 0 min 0,000 mm 0,0 UV-I 0 W/m -2,2 C -2,4 C 8,0 km/h (2 Bft)
07.12.2022 07:34 -0,1 C -1,1 C 86 % 1016,7 hPa 0,0 l/m 6,2 km/h (2 Bft) W-SW 242 0 min 0,000 mm 0,0 UV-I 0 W/m -2,2 C -2,2 C 8,0 km/h (2 Bft)
07.12.2022 07:33 0,0 C -1,1 C 86 % 1016,6 hPa 0,0 l/m 4,8 km/h (1 Bft) W-SW 244 0 min 0,000 mm 0,0 UV-I 0 W/m -2,1 C -1,5 C 8,0 km/h (2 Bft)
07.12.2022 07:32 0,0 C -1,1 C 86 % 1016,7 hPa 0,0 l/m 5,8 km/h (2 Bft) W-SW 257 0 min 0,000 mm 0,0 UV-I 0 W/m -2,1 C -1,9 C 8,0 km/h (2 Bft)
07.12.2022 07:31 0,1 C -1,1 C 86 % 1016,6 hPa 0,0 l/m 5,0 km/h (1 Bft) W 264 0 min 0,000 mm 0,0 UV-I 0 W/m -2,0 C -1,5 C 8,0 km/h (2 Bft)
07.12.2022 07:30 0,1 C -1,1 C 86 % 1016,6 hPa 0,0 l/m 5,8 km/h (2 Bft) W 269 0 min 0,000 mm 0,0 UV-I 0 W/m -2,0 C -1,8 C 8,0 km/h (2 Bft)
07.12.2022 07:29 0,1 C -1,1 C 86 % 1016,6 hPa 0,0 l/m 5,9 km/h (2 Bft) W 271 0 min 0,000 mm 0,0 UV-I 0 W/m -2,0 C -1,9 C 6,4 km/h (2 Bft)
07.12.2022 07:28 0,1 C -1,1 C 86 % 1016,6 hPa 0,0 l/m 6,9 km/h (2 Bft) W 276 0 min 0,000 mm 0,0 UV-I 0 W/m -2,0 C -2,3 C 8,0 km/h (2 Bft)
07.12.2022 07:27 0,1 C -1,1 C 86 % 1016,5 hPa 0,0 l/m 4,4 km/h (1 Bft) W 269 0 min 0,000 mm 0,0 UV-I 0 W/m -2,0 C 0,1 C 6,4 km/h (2 Bft)
07.12.2022 07:25 0,1 C -1,1 C 85 % 1016,5 hPa 0,0 l/m 5,2 km/h (1 Bft) W 264 0 min 0,000 mm 0,0 UV-I 0 W/m -2,1 C -1,6 C 6,4 km/h (2 Bft)
07.12.2022 07:24 0,2 C -1,1 C 85 % 1016,5 hPa 0,0 l/m 5,8 km/h (2 Bft) W 263 0 min 0,000 mm 0,0 UV-I 0 W/m -2,0 C -1,7 C 6,4 km/h (2 Bft)
07.12.2022 07:23 0,2 C -1,1 C 85 % 1016,4 hPa 0,0 l/m 6,8 km/h (2 Bft) W-SW 250 0 min 0,000 mm 0,0 UV-I 0 W/m -2,0 C -2,1 C 8,0 km/h (2 Bft)
07.12.2022 07:22 0,2 C -1,1 C 85 % 1016,4 hPa 0,0 l/m 7,0 km/h (2 Bft) W-SW 245 0 min 0,000 mm 0,0 UV-I 0 W/m -2,0 C -2,2 C 8,0 km/h (2 Bft)
07.12.2022 07:21 0,2 C -1,1 C 85 % 1016,4 hPa 0,0 l/m 6,1 km/h (2 Bft) W-SW 240 0 min 0,000 mm 0,0 UV-I 0 W/m -2,0 C -1,8 C 8,0 km/h (2 Bft)
07.12.2022 07:20 0,2 C -1,1 C 85 % 1016,4 hPa 0,0 l/m 6,0 km/h (2 Bft) W-SW 241 0 min 0,000 mm 0,0 UV-I 0 W/m -2,0 C -1,8 C 6,4 km/h (2 Bft)
07.12.2022 07:19 0,2 C -1,1 C 84 % 1016,4 hPa 0,0 l/m 6,1 km/h (2 Bft) SW 236 0 min 0,000 mm 0,0 UV-I 0 W/m -2,2 C -1,8 C 6,4 km/h (2 Bft)
07.12.2022 07:18 0,2 C -1,1 C 84 % 1016,4 hPa 0,0 l/m 5,9 km/h (2 Bft) W-SW 248 0 min 0,000 mm 0,0 UV-I 0 W/m -2,2 C -1,8 C 8,0 km/h (2 Bft)
07.12.2022 07:16 0,3 C -1,1 C 84 % 1016,4 hPa 0,0 l/m 5,7 km/h (2 Bft) W-SW 254 0 min 0,000 mm 0,0 UV-I 0 W/m -2,1 C -1,6 C 6,4 km/h (2 Bft)
07.12.2022 07:15 0,3 C -1,1 C 84 % 1016,3 hPa 0,0 l/m 4,3 km/h (1 Bft) W-SW 244 0 min 0,000 mm 0,0 UV-I 0 W/m -2,1 C 0,3 C 6,4 km/h (2 Bft)
07.12.2022 07:14 0,3 C -1,1 C 84 % 1016,3 hPa 0,0 l/m 3,8 km/h (1 Bft) W-SW 244 0 min 0,000 mm 0,0 UV-I 0 W/m -2,1 C 0,3 C 4,8 km/h (1 Bft)
07.12.2022 07:13 0,3 C -1,1 C 83 % 1016,4 hPa 0,0 l/m 5,3 km/h (1 Bft) W-SW 243 0 min 0,000 mm 0,0 UV-I 0 W/m -2,2 C -1,4 C 8,0 km/h (2 Bft)
07.12.2022 07:12 0,3 C -1,1 C 83 % 1016,4 hPa 0,0 l/m 5,0 km/h (1 Bft) W-SW 254 0 min 0,000 mm 0,0 UV-I 0 W/m -2,2 C -1,2 C 6,4 km/h (2 Bft)
07.12.2022 07:11 0,4 C -1,1 C 83 % 1016,4 hPa 0,0 l/m 5,6 km/h (2 Bft) W-SW 258 0 min 0,000 mm 0,0 UV-I 0 W/m -2,1 C -1,4 C 6,4 km/h (2 Bft)
07.12.2022 07:10 0,4 C -1,1 C 83 % 1016,4 hPa 0,0 l/m 4,1 km/h (1 Bft) W-SW 253 0 min 0,000 mm 0,0 UV-I 0 W/m -2,1 C 0,4 C 4,8 km/h (1 Bft)
07.12.2022 07:09 0,4 C -0,6 C 83 % 1016,5 hPa 0,0 l/m 4,2 km/h (1 Bft) W-SW 239 0 min 0,000 mm 0,0 UV-I 0 W/m -2,1 C 0,4 C 6,4 km/h (2 Bft)
07.12.2022 07:08 0,5 C -0,6 C 83 % 1016,5 hPa 0,0 l/m 5,8 km/h (2 Bft) W-SW 239 0 min 0,000 mm 0,0 UV-I 0 W/m -2,0 C -1,4 C 8,0 km/h (2 Bft)
07.12.2022 07:07 0,5 C -0,6 C 82 % 1016,4 hPa 0,0 l/m 5,0 km/h (1 Bft) W-SW 239 0 min 0,000 mm 0,0 UV-I 0 W/m -2,2 C -1,0 C 6,4 km/h (2 Bft)
07.12.2022 07:06 0,5 C -0,6 C 82 % 1016,5 hPa 0,0 l/m 5,4 km/h (2 Bft) W-SW 244 0 min 0,000 mm 0,0 UV-I 0 W/m -2,2 C -1,2 C 6,4 km/h (2 Bft)
07.12.2022 07:05 0,5 C -0,6 C 82 % 1016,5 hPa 0,0 l/m 5,5 km/h (2 Bft) W-SW 244 0 min 0,000 mm 0,0 UV-I 0 W/m -2,2 C -1,2 C 6,4 km/h (2 Bft)
07.12.2022 07:04 0,6 C -0,6 C 82 % 1016,4 hPa 0,0 l/m 4,7 km/h (1 Bft) W-SW 242 0 min 0,000 mm 0,0 UV-I 0 W/m -2,1 C -0,8 C 6,4 km/h (2 Bft)
07.12.2022 07:03 0,6 C -0,6 C 82 % 1016,4 hPa 0,0 l/m 4,1 km/h (1 Bft) W-SW 242 0 min 0,000 mm 0,0 UV-I 0 W/m -2,1 C 0,6 C 4,8 km/h (1 Bft)
07.12.2022 07:02 0,6 C -0,6 C 82 % 1016,4 hPa 0,0 l/m 3,7 km/h (1 Bft) W-SW 242 0 min 0,000 mm 0,0 UV-I 0 W/m -2,1 C 0,6 C 4,8 km/h (1 Bft)
07.12.2022 07:01 0,6 C -0,6 C 82 % 1016,4 hPa 0,0 l/m 3,5 km/h (1 Bft) W-SW 242 0 min 0,000 mm 0,0 UV-I 0 W/m -2,1 C 0,6 C 4,8 km/h (1 Bft)
07.12.2022 07:00 0,6 C -0,6 C 82 % 1016,4 hPa 0,0 l/m 5,2 km/h (1 Bft) W-SW 247 0 min 0,025 mm 0,0 UV-I 0 W/m -2,1 C -1,0 C 6,4 km/h (2 Bft)
07.12.2022 06:59 0,6 C -0,6 C 81 % 1016,5 hPa 0,0 l/m 4,3 km/h (1 Bft) W-SW 241 0 min 0,000 mm 0,0 UV-I 0 W/m -2,3 C 0,6 C 6,4 km/h (2 Bft)
07.12.2022 06:58 0,6 C -0,6 C 81 % 1016,5 hPa 0,0 l/m 5,8 km/h (2 Bft) W-SW 253 0 min 0,000 mm 0,0 UV-I 0 W/m -2,3 C -1,3 C 8,0 km/h (2 Bft)
07.12.2022 06:57 0,6 C -0,6 C 81 % 1016,5 hPa 0,0 l/m 5,4 km/h (2 Bft) W-SW 254 0 min 0,000 mm 0,0 UV-I 0 W/m -2,3 C -1,1 C 6,4 km/h (2 Bft)
07.12.2022 06:56 0,7 C -0,6 C 81 % 1016,4 hPa 0,0 l/m 6,4 km/h (2 Bft) W-SW 252 0 min 0,000 mm 0,0 UV-I 0 W/m -2,2 C -1,4 C 8,0 km/h (2 Bft)
07.12.2022 06:55 0,7 C -0,6 C 81 % 1016,4 hPa 0,0 l/m 8,9 km/h (2 Bft) W-SW 251 0 min 0,000 mm 0,0 UV-I 0 W/m -2,2 C -2,2 C 11,3 km/h (2 Bft)
07.12.2022 06:54 0,7 C 0,0 C 81 % 1016,4 hPa 0,0 l/m 11,5 km/h (2 Bft) W-SW 254 0 min 0,000 mm 0,0 UV-I 0 W/m -2,2 C -2,8 C 14,5 km/h (3 Bft)
07.12.2022 06:53 0,8 C 0,0 C 80 % 1016,4 hPa 0,0 l/m 9,4 km/h (2 Bft) W 265 0 min 0,000 mm 0,0 UV-I 0 W/m -2,2 C -2,2 C 11,3 km/h (2 Bft)
07.12.2022 06:52 0,8 C 0,0 C 80 % 1016,4 hPa 0,0 l/m 11,2 km/h (2 Bft) SW 227 0 min 0,000 mm 0,0 UV-I 0 W/m -2,2 C -2,7 C 16,1 km/h (3 Bft)
07.12.2022 06:51 0,8 C 0,0 C 80 % 1016,5 hPa 0,0 l/m 11,2 km/h (2 Bft) W-SW 248 0 min 0,000 mm 0,0 UV-I 0 W/m -2,2 C -2,7 C 14,5 km/h (3 Bft)
07.12.2022 06:50 0,9 C 0,0 C 79 % 1016,5 hPa 0,0 l/m 10,2 km/h (2 Bft) SW 229 0 min 0,000 mm 0,0 UV-I 0 W/m -2,3 C -2,3 C 12,9 km/h (3 Bft)
07.12.2022 06:49 0,9 C 0,0 C 78 % 1016,5 hPa 0,0 l/m 7,4 km/h (2 Bft) W-SW 245 0 min 0,000 mm 0,0 UV-I 0 W/m -2,5 C -1,5 C 9,7 km/h (2 Bft)
07.12.2022 06:48 0,9 C 0,0 C 78 % 1016,5 hPa 0,0 l/m 9,0 km/h (2 Bft) W-SW 244 0 min 0,000 mm 0,0 UV-I 0 W/m -2,5 C -2,0 C 12,9 km/h (3 Bft)
07.12.2022 06:47 0,9 C 0,0 C 77 % 1016,5 hPa 0,0 l/m 9,2 km/h (2 Bft) W 265 0 min 0,000 mm 0,0 UV-I 0 W/m -2,7 C -2,0 C 11,3 km/h (2 Bft)
07.12.2022 06:46 1,0 C 0,0 C 77 % 1016,5 hPa 0,0 l/m 11,4 km/h (2 Bft) W 271 0 min 0,000 mm 0,0 UV-I 0 W/m -2,6 C -2,5 C 14,5 km/h (3 Bft)
07.12.2022 06:45 1,0 C 0,0 C 77 % 1016,6 hPa 0,0 l/m 13,5 km/h (3 Bft) W 269 0 min 0,000 mm 0,0 UV-I 0 W/m -2,6 C -2,9 C 17,7 km/h (3 Bft)
07.12.2022 06:44 1,0 C 0,0 C 77 % 1016,5 hPa 0,0 l/m 11,3 km/h (2 Bft) W 272 0 min 0,000 mm 0,0 UV-I 0 W/m -2,6 C -2,4 C 14,5 km/h (3 Bft)
07.12.2022 06:43 1,0 C 0,0 C 77 % 1016,5 hPa 0,0 l/m 11,7 km/h (2 Bft) W-NW 284 0 min 0,000 mm 0,0 UV-I 0 W/m -2,6 C -2,5 C 14,5 km/h (3 Bft)
07.12.2022 06:42 1,0 C 0,0 C 77 % 1016,5 hPa 0,0 l/m 11,2 km/h (2 Bft) W 264 0 min 0,000 mm 0,0 UV-I 0 W/m -2,6 C -2,4 C 14,5 km/h (3 Bft)
07.12.2022 06:41 1,0 C 0,0 C 77 % 1016,5 hPa 0,0 l/m 10,6 km/h (2 Bft) W 272 0 min 0,000 mm 0,0 UV-I 0 W/m -2,6 C -2,3 C 12,9 km/h (3 Bft)
07.12.2022 06:40 1,1 C 0,0 C 76 % 1016,5 hPa 0,0 l/m 11,1 km/h (2 Bft) W 278 0 min 0,000 mm 0,0 UV-I 0 W/m -2,6 C -2,3 C 14,5 km/h (3 Bft)
07.12.2022 06:39 1,0 C 0,0 C 76 % 1016,5 hPa 0,0 l/m 12,4 km/h (2 Bft) W-NW 284 0 min 0,000 mm 0,0 UV-I 0 W/m -2,7 C -2,7 C 16,1 km/h (3 Bft)
07.12.2022 06:38 1,0 C 0,0 C 76 % 1016,5 hPa 0,0 l/m 11,0 km/h (2 Bft) W 270 0 min 0,000 mm 0,0 UV-I 0 W/m -2,7 C -2,4 C 16,1 km/h (3 Bft)
07.12.2022 06:37 1,0 C 0,0 C 76 % 1016,5 hPa 0,0 l/m 9,8 km/h (2 Bft) W-NW 282 0 min 0,000 mm 0,0 UV-I 0 W/m -2,7 C -2,1 C 12,9 km/h (3 Bft)
07.12.2022 06:36 1,0 C 0,0 C 77 % 1016,5 hPa 0,0 l/m 10,1 km/h (2 Bft) W-NW 283 0 min 0,000 mm 0,0 UV-I 0 W/m -2,6 C -2,1 C 12,9 km/h (3 Bft)
07.12.2022 06:35 1,0 C 0,6 C 77 % 1016,5 hPa 0,0 l/m 11,3 km/h (2 Bft) W 281 0 min 0,000 mm 0,0 UV-I 0 W/m -2,6 C -2,4 C 16,1 km/h (3 Bft)
07.12.2022 06:34 1,0 C 0,6 C 77 % 1016,5 hPa 0,0 l/m 10,9 km/h (2 Bft) W-NW 282 0 min 0,000 mm 0,0 UV-I 0 W/m -2,6 C -2,3 C 14,5 km/h (3 Bft)
07.12.2022 06:33 1,0 C 0,6 C 77 % 1016,5 hPa 0,0 l/m 12,1 km/h (2 Bft) W 278 0 min 0,000 mm 0,0 UV-I 0 W/m -2,6 C -2,6 C 17,7 km/h (3 Bft)
07.12.2022 06:32 1,1 C 0,6 C 78 % 1016,6 hPa 0,0 l/m 10,1 km/h (2 Bft) W-NW 297 0 min 0,000 mm 0,0 UV-I 0 W/m -2,3 C -2,0 C 14,5 km/h (3 Bft)
07.12.2022 06:31 1,0 C 0,6 C 78 % 1016,5 hPa 0,0 l/m 9,7 km/h (2 Bft) W 269 0 min 0,000 mm 0,0 UV-I 0 W/m -2,4 C -2,0 C 11,3 km/h (2 Bft)
_ Min-Zeit 07:48 07:10 06:37 07:14 - 19:36 - - - - - - 06:37 07:49 19:36
Minimum _ -0,3 C -1,1 C 76 % 1016,3 hPa - 0,0 km/h (0 Bft) - - - - - - -2,7 C -4,0 C 0,0 km/h (0 Bft)
_ Max-Zeit 13:47 13:37 09:00 09:07 15:47 15:15 - - 08:03 11:01 12:53 13:40 10:58 10:53 12:58
Maximum _ 3,0 C 3,3 C 95 % 1019,2 hPa 0,2 l/m 19,4 km/h
W-SW (3 Bft)
- - 2 min 0,051 mm 0,6 UV-I 172 W/m 1,9 C 2,4 C 25,7 km/h
S-SW (4 Bft)
Durchschnitt _ 1,6 C 1,4 C 90 % 1017,5 hPa #0,8 l/m 6,9 km/h (2 Bft) W-SW - #3 min. #0,025 mm 0,0 UV-I 12 W/m 0,1 C -0,2 C 9,5 km/h (2 Bft)
Wetterstation Eggerszell